TimeCST,TemperatureF,Dew PointF,Humidity,Sea Level PressureIn,VisibilityMPH,Wind Direction,Wind SpeedMPH,Gust SpeedMPH,PrecipitationIn,Events,Conditions,WindDirDegrees,DateUTC
12:52 AM,30.9,19.9,64,29.84,10.0,South,3.5,-,N/A,,Clear,180,2013-01-07 06:52:00
1:52 AM,32.0,21.2,64,29.77,10.0,West,13.8,-,N/A,,Partly Cloudy,270,2013-01-07 07:52:00
2:52 AM,28.9,19.0,67,29.87,10.0,West,10.4,-,N/A,,Clear,260,2013-01-07 08:52:00
3:52 AM,30.0,19.0,64,29.87,10.0,West,11.5,-,N/A,,Clear,280,2013-01-07 09:52:00
4:52 AM,25.0,17.1,72,29.88,10.0,West,9.2,-,N/A,,Clear,270,2013-01-07 10:52:00
5:52 AM,28.0,18.0,66,29.88,10.0,West,11.5,-,N/A,,Clear,280,2013-01-07 11:52:00
6:52 AM,28.0,18.0,66,29.89,10.0,WNW,10.4,-,N/A,,Clear,290,2013-01-07 12:52:00
7:52 AM,25.0,17.1,72,29.91,10.0,WNW,6.9,-,N/A,,Clear,290,2013-01-07 13:52:00
8:52 AM,24.1,15.1,69,29.93,10.0,SW,6.9,-,N/A,,Clear,230,2013-01-07 14:52:00
9:52 AM,28.9,17.1,61,29.93,10.0,WNW,4.6,-,N/A,,Clear,290,2013-01-07 15:52:00
10:52 AM,32.0,19.0,59,29.95,10.0,WSW,9.2,-,N/A,,Clear,250,2013-01-07 16:52:00
11:52 AM,33.1,19.9,59,29.94,10.0,West,9.2,19.6,N/A,,Mostly Cloudy,280,2013-01-07 17:52:00
12:52 PM,33.1,21.0,61,29.91,10.0,WNW,10.4,-,N/A,,Scattered Clouds,290,2013-01-07 18:52:00
1:52 PM,35.1,21.0,57,29.90,10.0,WNW,9.2,-,N/A,,Clear,290,2013-01-07 19:52:00
2:52 PM,36.0,21.0,55,29.91,10.0,West,15.0,-,N/A,,Clear,280,2013-01-07 20:52:00
3:52 PM,34.0,21.9,61,29.91,10.0,West,12.7,-,N/A,,Clear,280,2013-01-07 21:52:00
4:52 PM,32.0,21.0,64,29.92,10.0,SW,5.8,-,N/A,,Clear,230,2013-01-07 22:52:00
5:52 PM,26.1,19.0,75,29.93,10.0,SW,6.9,-,N/A,,Clear,230,2013-01-07 23:52:00
6:52 PM,25.0,19.0,78,29.93,10.0,SW,5.8,-,N/A,,Clear,230,2013-01-08 00:52:00
7:52 PM,14.0,10.9,88,29.94,10.0,SE,3.5,-,N/A,,Clear,140,2013-01-08 01:52:00
8:52 PM,7.0,5.0,92,29.94,9.0,SE,4.6,-,N/A,,Clear,130,2013-01-08 02:52:00
9:52 PM,10.0,8.1,92,29.91,10.0,East,3.5,-,N/A,,Clear,90,2013-01-08 03:52:00
10:52 PM,6.1,3.9,91,29.90,10.0,East,5.8,-,N/A,,Clear,90,2013-01-08 04:52:00
11:52 PM,8.1,6.1,92,29.87,10.0,ESE,5.8,-,N/A,,Clear,110,2013-01-08 05:52:00